WetterOnline ( https://www.wetteronline.ch )

Wetter aktuell Toulouse

Aktuelles Wetter: Toulouse-Blagnac (154m)

6-stündlich | Neueste Meldungen
Ortszeit Temperatur Wetter
Fr, 24.05. 8:00 12.6° C -
Fr, 24.05. 2:00 14.0° C bedeckt
Do, 23.05. 20:00 17.1° C bedeckt
Do, 23.05. 14:00 17.5° C bewölkt
Do, 23.05. 8:00 13.3° C -
Do, 23.05. 2:00 12.5° C Regen
Mi, 22.05. 20:00 19.0° C bewölkt
Mi, 22.05. 14:00 18.7° C wolkig
Ortszeit Temperatur Wetter
Fr, 24.05. 12:00 17.6° C -
Fr, 24.05. 11:00 16.2° C -
Fr, 24.05. 10:00 15.2° C wolkig
Fr, 24.05. 9:00 14.3° C -
Fr, 24.05. 8:00 12.6° C -
Fr, 24.05. 7:00 12.2° C bewölkt
Fr, 24.05. 6:00 12.4° C bedeckt
Ortszeit Relative Feuchte Sichtweite
Fr, 24.05. 8:00 83% 45 km
Fr, 24.05. 2:00 83% 45 km
Do, 23.05. 20:00 61% 55 km
Do, 23.05. 14:00 69% 17 km
Do, 23.05. 8:00 91% 35 km
Do, 23.05. 2:00 93% 6 km
Mi, 22.05. 20:00 47% 55 km
Mi, 22.05. 14:00 56% 55 km
Ortszeit Relative Feuchte Sichtweite
Fr, 24.05. 12:00 58% 55 km
Fr, 24.05. 11:00 60% 45 km
Fr, 24.05. 10:00 69% 35 km
Fr, 24.05. 9:00 77% 26 km
Fr, 24.05. 8:00 83% 45 km
Fr, 24.05. 7:00 85% 35 km
Fr, 24.05. 6:00 86% 35 km
Ortszeit Niederschlagsmenge Niederschlagsart
Fr, 24.05. 8:00 0.1 l/m2 in 12 Std. -
Fr, 24.05. 2:00 0.1 l/m2 in 6 Std. -
Do, 23.05. 20:00 0.8 l/m2 in 12 Std. -
Do, 23.05. 14:00 0.8 l/m2 in 6 Std. -
Do, 23.05. 8:00 12 l/m2 in 12 Std. -
Do, 23.05. 2:00 10 l/m2 in 6 Std. -
Mi, 22.05. 20:00 0.0 l/m2 in 12 Std. -
Mi, 22.05. 14:00 0.0 l/m2 in 6 Std. -
Ortszeit Niederschlagsmenge Niederschlagsart
Fr, 24.05. 12:00 0.0 l/m2 in 1 Std. -
Fr, 24.05. 11:00 keine Meldung -
Fr, 24.05. 10:00 0.0 l/m2 in 1 Std. -
Fr, 24.05. 9:00 0.0 l/m2 in 1 Std. -
Fr, 24.05. 8:00 keine Meldung -
Fr, 24.05. 7:00 0.0 l/m2 in 1 Std. -
Fr, 24.05. 6:00 0.0 l/m2 in 1 Std. -
Ortszeit Stärke Spitze Richtung
km/h Bft. km/h Grad Sektor
Fr, 24.05. 8:00 9 2 13 300° NW
Fr, 24.05. 2:00 13 3 20 270° W
Do, 23.05. 20:00 17 3 31 310° NW
Do, 23.05. 14:00 22 4 37 280° W
Do, 23.05. 8:00 13 3 20 270° W
Do, 23.05. 2:00 17 3 26 260° W
Mi, 22.05. 20:00 6 1 19 360° N
Mi, 22.05. 14:00 19 3 35 330° NW
Ortszeit Stärke Spitze Richtung
km/h Bft. km/h Grad Sektor
Fr, 24.05. 12:00 9 2 24 300° NW
Fr, 24.05. 11:00 7 2 19 340° N
Fr, 24.05. 10:00 7 2 19 310° NW
Fr, 24.05. 9:00 7 2 15 300° NW
Fr, 24.05. 8:00 9 2 13 300° NW
Fr, 24.05. 7:00 7 2 13 300° NW
Fr, 24.05. 6:00 9 2 15 300° NW
Ortszeit Untergrenze Bedeckung Gattung
total tief tief mittel hoch
Fr, 24.05. 8:00 - - - - - -
Fr, 24.05. 2:00 - 8/8 - - - -
Do, 23.05. 20:00 - 8/8 - - - -
Do, 23.05. 14:00 - 7/8 - - - -
Do, 23.05. 8:00 - - - - - -
Do, 23.05. 2:00 - 8/8 - - - -
Mi, 22.05. 20:00 - 7/8 - - - -
Mi, 22.05. 14:00 - 6/8 - - - -
Ortszeit Bedeckungsgrad in Achtel und Wolkenuntergrenze
Fr, 24.05. 12:00 -
Fr, 24.05. 11:00 -
Fr, 24.05. 10:00 6
Fr, 24.05. 9:00 -
Fr, 24.05. 8:00 -
Fr, 24.05. 7:00 7
Fr, 24.05. 6:00 8
Ortszeit Luftdruck NN (hPa) Tendenz (hPa in 3 Std.)
Fr, 24.05. 8:00 1021 + 0,4
Fr, 24.05. 2:00 1021 - 0,2
Do, 23.05. 20:00 1019 + 0,3
Do, 23.05. 14:00 1020 - 0,6
Do, 23.05. 8:00 1020 + 0,4
Do, 23.05. 2:00 1020 + 0,3
Mi, 22.05. 20:00 1015 - 0,4
Mi, 22.05. 14:00 1017 - 0,5
Ortszeit Luftdruck NN (hPa) Tendenz (hPa in 3 Std.)
Fr, 24.05. 12:00 1020 - 0,3
Fr, 24.05. 11:00 1020 - 0,2
Fr, 24.05. 10:00 1021 + 0,3
Fr, 24.05. 9:00 1021 + 0,5
Fr, 24.05. 8:00 1021 + 0,4
Fr, 24.05. 7:00 1020 0,0
Fr, 24.05. 6:00 1020 - 0,5
Ortszeit Schneehöhe (cm)
Fr, 24.05. 8:00 0
Fr, 24.05. 2:00 0
Do, 23.05. 20:00 0
Do, 23.05. 14:00 0
Do, 23.05. 8:00 0
Do, 23.05. 2:00 0
Mi, 22.05. 20:00 0
Mi, 22.05. 14:00 0
Ortszeit Schneehöhe (cm)
Fr, 24.05. 12:00 -
Fr, 24.05. 11:00 0
Fr, 24.05. 10:00 -
Fr, 24.05. 9:00 -
Fr, 24.05. 8:00 0
Fr, 24.05. 7:00 -
Fr, 24.05. 6:00 -
Link zu dieser Seite / Seite empfehlen

Das Wetter in ...